Location: Ajisawe
(8.4333°N, 4.3833°E)
Time: 23:02:33
(UTC+00:00)

USA 229 - Pass Details

Date: 07 June 2020
Orbit: 980 x 1233 km, 63.4° (Epoch: 24 June)

Event Time Altitude Azimuth Distance (km) Brightness Sun altitude
Rises 03:07:23 0° 335° (NNW) 4,089 6.8 -30.7°
Reaches altitude 10° 03:10:06 10° 334° (NNW) 3,147 6.2 -30.2°
Maximum altitude 03:17:45 82° 248° (WSW) 1,242 3.8 -28.6°
Drops below altitude 10° 03:25:29 10° 160° (SSE) 3,179 6.1 -26.9°
Sets 03:28:14 0° 159° (SSE) 4,132 6.7 -26.3°
